Regional Weather Roundup
Issued by NWS

Home | Current Version | Previous Version | Graphics & Text | Print | Product List | Glossary On
Versions: 1 2 3 4 5 6 7 8 9 10 11 12 13 14 15 16 17 18 19 20 21 22 23 24 25 26 27 28 29 30 31 32 33 34 35 36 37 38 39 40 41 42 43 44 45 46 47 48 49 50
000
ASUS43 KBIS 050610
RWRND

NORTH DAKOTA REGIONAL WEATHER ROUNDUP
NATIONAL WEATHER SERVICE BISMARCK ND
100 AM CDT WED AUG 05 2015

NOTE: "FAIR" INDICATES FEW OR NO CLOUDS BELOW 12,000 FEET WITH NO
SIGNIFICANT WEATHER AND/OR OBSTRUCTIONS TO VISIBILITY.


NDZ001>003-009>011-017-050700-
NORTHWEST NORTH DAKOTA

CITY           SKY/WX    TMP DP  RH WIND       PRES   REMARKS
WILLISTON      CLOUDY    75  58  55 W16G25    29.94R
6HR MIN TEMP:  75; 6HR MAX TEMP:  88;

MINOT          CLOUDY    63  54  72 E9        29.96S
MINOT AFB      CLOUDY    61  56  82 SE12      29.96S
$$

NDZ018>021-031>035-040>046-050700-
SOUTHWEST NORTH DAKOTA

CITY           SKY/WX    TMP DP  RH WIND       PRES   REMARKS
BISMARCK       MOCLDY    67  60  78 E6        29.99R
6HR MIN TEMP:  67; 6HR MAX TEMP:  85;

DICKINSON      CLOUDY    68  58  70 SW12      30.00R
GARRISON         N/A     65  57  75 SE7       29.97R
6HR MIN TEMP:  65; 6HR MAX TEMP:  80;

HETTINGER ARPT CLOUDY    64  61  90 N6        30.01F
$$

NDZ004>008-012>016-024-026-027-054-050700-
NORTHEAST NORTH DAKOTA

CITY           SKY/WX    TMP DP  RH WIND       PRES   REMARKS
GRAND FORKS    CLEAR     62  54  74 NE7       30.04R
GRND FRKS AFB  CLEAR     61  54  77 E5        30.05R
DEVILS LAKE    CLEAR     63  50  63 E8        30.03S
$$

NDZ022-023-025-028>030-036>039-047>053-050700-
SOUTHEAST NORTH DAKOTA

CITY           SKY/WX    TMP DP  RH WIND       PRES   REMARKS
FARGO          PTCLDY    61  54  77 CALM      30.03R
6HR MIN TEMP:  59; 6HR MAX TEMP:  79;

JAMESTOWN      PTCLDY    60  55  83 E7        30.03R
$$




USA.gov is the U.S. government's official web portal to all federal, state and local government web resources and services.